Tracking 22287 objects as of 27-Jan-2021
HD Live streaming from Space Station
objects crossing your sky now

STARLINK-1351

Track STARLINK-1351 now!
10-day predictions
STARLINK-1351 is classified as:


NORAD ID: 45697
Int'l Code: 2020-035AS
Perigee: 553.7 km
Apogee: 554.9 km
Inclination: 53.0 °
Period: 95.6 minutes
Semi major axis: 6925 km
RCS: Unknown
Launch date: June 4, 2020
Source: United States (US)
Launch site: AIR FORCE EASTERN TEST RANGE (AFETR)
aabbcc
Your satellite tracking list
Your tracking list is empty




NASA's NSSDC Master Catalog

Two Line Element Set (TLE):
1 45697U 20035AS  21027.60253469 -.00001430  00000-0 -77160-4 0  9993
2 45697  53.0479 138.2628 0000882 113.8824 246.2257 15.06403918 37742
Source of the keplerian elements: AFSPC